Flag for Romania Weather past 2 weeks in Iasi, Romania

Now
59 °F

Passing clouds.


Feels Like: 57 °F
Forecast: 54 / 69 °F
Wind: 12 mph from East

Location: Iasi Airport

Current Time: May 6, 2015 at 4:23:47 AM

Latest Report: May 6, 2015 at 3:00 AM


Visibility: N/A

Pressure: 29.98 "Hg

Humidity: 77%

Dew point: 52 °F

Location of IasiLocation

Historic Weather in Iasi — Graph

°F

Iasi temperature yesterday

Maximum temperature yesterday: 79 °F (at 4:30 PM)
Minimum temperature yesterday: 55 °F (at 5:30 AM)
Average temperature yesterday: 68 °F

Past Weeks' High & Low Weather Summary

 TemperatureHumidityPressure
High79 °F (May 5, 4:30 PM)100% (Apr 22, 7:00 AM)30.18 "Hg (Apr 22, 7:00 AM)
Low36 °F (Apr 21, 6:30 AM)22% (Apr 25, 3:30 PM)29.74 "Hg (Apr 28, 4:00 PM)
Average58 °F66%29.94 "Hg
* Reported Apr 21 3:00 AM — May 6 3:00 AM, Iasi, Weather by CustomWeather, © 2015

Note: Actual official high and low records may vary slightly from our data, if they occured in-between our weather recording intervals... More about our weather records

Advertising

Iasi weather history for previous 24 hours

 ConditionsComfort  
Time TempWeatherWind HumidityBarometerVisibility
3:00 AM
Wed, May 6
59 °FPassing clouds.12 mph77%29.98 "HgN/A
2:00 AM61 °FClear.13 mph77%29.98 "Hg10 mi
1:00 AM63 °FClear.13 mph77%29.98 "Hg10 mi
12:00 AM63 °FClear.10 mph88%29.98 "Hg10 mi
11:00 PM
Tue, May 5
64 °FClear.10 mph83%29.98 "Hg10 mi
10:00 PM66 °FClear.9 mph73%29.98 "Hg10 mi
8:30 PM72 °FSunny.8 mph53%29.95 "Hg10 mi
8:00 PM73 °FSunny.6 mph50%29.95 "Hg10 mi
7:30 PM75 °FSunny.5 mph44%29.95 "Hg10 mi
7:00 PM77 °FPassing clouds.5 mph39%29.95 "HgN/A
6:30 PM77 °FPassing clouds.6 mph42%29.92 "HgN/A
6:00 PM77 °FPassing clouds.5 mph42%29.92 "HgN/A
5:30 PM77 °FSunny.3 mph42%29.92 "Hg10 mi
5:00 PM79 °FSunny.2 mph42%29.95 "Hg10 mi
4:30 PM79 °FSunny.2 mph45%29.95 "Hg10 mi
4:00 PM77 °FPassing clouds.6 mph47%29.95 "HgN/A
3:30 PM77 °FSunny.2 mph44%29.95 "Hg10 mi
3:00 PM75 °FScattered clouds.3 mph47%29.95 "HgN/A
2:30 PM77 °FPartly sunny.3 mph47%29.98 "HgN/A
2:00 PM75 °FPartly sunny.3 mph50%29.98 "HgN/A
1:30 PM73 °FScattered clouds.3 mph53%29.98 "HgN/A
1:00 PM73 °FScattered clouds.5 mph57%29.98 "HgN/A
12:30 PM72 °FPassing clouds.6 mph65%29.98 "HgN/A
12:00 PM72 °FPassing clouds.3 mph53%29.98 "HgN/A
11:30 AM70 °FPassing clouds.5 mph60%29.98 "HgN/A
11:00 AM68 °FPassing clouds.2 mph64%30.01 "HgN/A
10:30 AM66 °FPassing clouds.5 mph68%29.98 "HgN/A
10:00 AM66 °FSunny.No wind68%30.01 "Hg10 mi
9:30 AM64 °FSunny.No wind73%30.01 "Hg10 mi
9:00 AM63 °FPassing clouds.3 mph77%29.98 "HgN/A
8:30 AM61 °FSunny.5 mph83%29.98 "Hg10 mi
8:00 AM59 °FSunny.5 mph88%29.98 "Hg10 mi
7:30 AM57 °FSunny.2 mph88%29.98 "Hg10 mi
7:00 AM55 °FSunny.5 mph94%29.98 "Hg10 mi
6:30 AM55 °FClear.6 mph94%29.98 "Hg10 mi
6:00 AM55 °FClear.6 mph88%29.98 "Hg10 mi
5:30 AM55 °FClear.7 mph88%29.95 "Hg10 mi
5:00 AM57 °FPassing clouds.6 mph88%29.95 "HgN/A
Weather by CustomWeather, © 2015

See weather overviewHow to use our weather pages